#datint,netname,site,siteID,timestamp,IntT,BattV,AirT2,AirT,AirT_Avg,AirT_Max,AirT_Min,RH_Avg,RH_Max,RH_Min,EA_Avg,Td_Avg,Td_Max,Td_Min,WindS_Smp,WindS_Avg,WindD_Avg,WindD_SD,WindS_Max,ETo,ETr,SoilT4,SoilT8,SoilVWC8,SolarW_Avg,wetstate_Avg,wetT_Avg,Precip_accum,Precip_WPG,Precip_TB
15min,AgWx,beryljct,423,06OCT2021:00:00:00,52.5,12.77,51.6,51.8,51.9,52.1,51.8,95,95,94,1.236,50.4,50.7,50.1,2.258,3.0,173,12,5.9,0.00003,0.00004,55.4,57.4,21,0,100,.,14.29,0.00,0.00
15min,AgWx,beryljct,423,06OCT2021:00:15:00,52.4,12.76,51.7,51.6,51.4,51.7,51.1,95,96,94,1.244,50.0,50.4,49.7,2.126,2.5,188,11,3.5,0.00002,0.00003,55.3,57.4,21,0,100,.,14.29,0.00,0.00
15min,AgWx,beryljct,423,06OCT2021:00:30:00,52.2,12.75,50.9,50.7,50.9,51.6,50.7,95,96,95,1.205,49.6,50.5,49.3,4.867,3.8,149,11,5.9,0.00003,0.00004,55.2,57.4,21,0,100,.,14.30,0.00,0.00
15min,AgWx,beryljct,423,06OCT2021:00:45:00,52.1,12.74,50.3,50.4,50.7,50.8,50.4,96,96,96,1.197,49.5,49.8,49.3,2.389,3.6,140,8.0,4.9,0.00002,0.00003,55.2,57.4,21,0,100,.,14.29,0.00,0.00
15min,AgWx,beryljct,423,06OCT2021:01:00:00,51.8,12.71,50.2,50.0,50.1,50.4,49.7,97,97,96,1.191,49.2,49.5,48.8,2.17,2.0,184,16,2.5,0.00001,0.00001,55.1,57.3,21,0,100,.,14.29,0.00,0.00
15min,AgWx,beryljct,423,06OCT2021:01:15:00,51.6,12.72,50.8,50.6,50.4,50.6,50.0,97,98,97,1.221,49.7,50.0,49.2,1.535,1.7,195,1.1,2.2,0.00000,0.00001,55.0,57.3,21,0,100,.,14.29,0.00,0.00
15min,AgWx,beryljct,423,06OCT2021:01:30:00,51.6,12.71,50.3,50.2,50.1,50.7,49.6,97,98,97,1.205,49.4,50.0,48.8,0,0.3,197,0.0,1.6,-0.00000,-0.00000,54.9,57.3,21,0,100,.,14.30,0.01,0.00
15min,AgWx,beryljct,423,06OCT2021:01:45:00,51.5,12.68,50.7,50.6,50.3,50.6,50.2,98,98,97,1.222,49.7,49.9,49.5,0.395,0.2,196,0.0,0.8,-0.00000,-0.00001,54.8,57.2,22,0,100,.,14.29,0.00,0.00
15min,AgWx,beryljct,423,06OCT2021:02:00:00,51.4,12.67,50.2,50.1,50.7,51.1,50.1,98,98,97,1.198,50.1,50.5,49.3,1.008,0.2,270,19,1.5,-0.00000,-0.00001,54.7,57.2,21,0,100,.,14.29,0.00,0.00
15min,AgWx,beryljct,423,06OCT2021:02:15:00,51.2,12.67,50.6,50.4,49.9,50.4,49.5,97,98,97,1.216,49.2,49.8,48.8,0.833,0.3,312,0.0,1.3,-0.00000,-0.00000,54.7,57.2,21,0,100,.,14.29,0.00,0.00
15min,AgWx,beryljct,423,06OCT2021:02:30:00,51.1,12.66,50.3,50.0,49.6,50.4,48.9,98,98,97,1.203,49.0,49.9,48.2,1.688,1.2,36,39,2.8,0.00000,0.00000,54.6,57.2,21,0,100,.,14.29,0.00,0.00
15min,AgWx,beryljct,423,06OCT2021:02:45:00,51.1,12.65,50.1,49.9,49.5,50.0,49.1,98,98,98,1.198,48.9,49.5,48.5,1.929,1.7,345,11,2.3,0.00000,0.00000,54.6,57.1,21,0,100,.,14.29,0.00,0.00
15min,AgWx,beryljct,423,06OCT2021:03:00:00,51.1,12.63,48.7,48.6,49.1,49.9,48.6,98,98,98,1.143,48.6,49.4,48.1,1.6,1.7,31,1.3,3.0,0.00000,0.00000,54.5,57.1,21,0,100,.,14.29,0.00,0.00
15min,AgWx,beryljct,423,06OCT2021:03:15:00,51.0,12.63,49.1,48.9,48.8,49.2,48.6,98,99,98,1.160,48.4,48.8,48.1,1.381,0.9,317,50,2.6,-0.00000,-0.00000,54.4,57.1,21,0,100,.,14.29,0.00,0.00
15min,AgWx,beryljct,423,06OCT2021:03:30:00,50.9,12.63,49.6,49.4,49.1,49.4,48.9,99,99,98,1.181,48.7,49.1,48.5,2.411,0.3,257,18,2.4,-0.00000,-0.00001,54.4,57.1,21,0,100,.,14.29,0.00,0.00
15min,AgWx,beryljct,423,06OCT2021:03:45:00,50.9,12.64,49.8,49.9,49.6,49.9,49.3,99,99,99,1.205,49.3,49.6,49.0,2.192,2.2,186,15,2.8,0.00000,0.00000,54.3,57.0,21,0,100,.,14.29,0.00,0.00
15min,AgWx,beryljct,423,06OCT2021:04:00:00,51.0,12.63,50.0,49.9,49.8,50.0,49.6,99,99,99,1.207,49.5,49.7,49.2,2.126,1.8,180,10,2.4,0.00000,0.00000,54.3,57.0,21,0,100,.,14.29,0.00,0.00
15min,AgWx,beryljct,423,06OCT2021:04:15:00,51.1,12.63,50.2,50.2,50.0,50.2,49.9,99,99,98,1.213,49.6,49.8,49.5,1.513,2.1,187,4.6,3.1,0.00000,0.00000,54.2,56.9,21,0,100,.,14.29,0.00,0.00
15min,AgWx,beryljct,423,06OCT2021:04:30:00,51.2,12.63,50.6,50.4,50.3,50.5,50.1,98,98,98,1.223,49.9,50.0,49.6,0,0.5,179,0.3,1.9,-0.00000,-0.00000,54.2,56.9,21,0,100,.,14.29,0.00,0.00
15min,AgWx,beryljct,423,06OCT2021:04:45:00,51.2,12.62,50.0,49.9,50.0,50.4,49.7,98,98,97,1.192,49.4,50.0,49.1,0.592,1.3,11,17,2.5,0.00000,0.00000,54.2,56.9,21,0,100,.,14.29,0.00,0.00
15min,AgWx,beryljct,423,06OCT2021:05:00:00,51.0,12.62,49.7,49.6,49.7,50.0,49.4,97,98,97,1.180,49.0,49.4,48.7,0,0.5,93,66,1.9,-0.00000,-0.00000,54.1,56.8,21,0,100,.,14.29,0.00,0.00
15min,AgWx,beryljct,423,06OCT2021:05:15:00,50.9,12.62,49.3,49.6,49.6,49.7,49.3,98,98,97,1.179,48.9,49.1,48.6,1.03,0.1,183,12,1.0,-0.00000,-0.00001,54.1,56.8,22,0,100,.,14.29,0.00,0.00
15min,AgWx,beryljct,423,06OCT2021:05:30:00,50.7,12.62,49.2,49.2,49.4,49.8,49.0,98,98,98,1.162,48.8,49.2,48.4,0.833,0.8,330,0.1,2.0,-0.00000,-0.00000,54.1,56.8,21,0,100,.,14.29,0.00,0.00
15min,AgWx,beryljct,423,06OCT2021:05:45:00,50.4,12.62,49.7,49.5,49.4,49.8,48.5,98,98,97,1.177,48.8,49.2,47.8,0,0.2,21,39,2.2,-0.00000,-0.00001,54.0,56.8,22,0,100,.,14.29,0.00,0.00
15min,AgWx,beryljct,423,06OCT2021:06:00:00,50.5,12.61,49.1,49.1,49.5,50.1,49.0,98,98,98,1.157,49.0,49.6,48.4,2.433,1.0,49,61,2.4,0.00000,0.00000,54.0,56.8,22,0,100,.,14.29,0.00,0.00
15min,AgWx,beryljct,423,06OCT2021:06:15:00,50.6,12.61,49.2,49.1,49.2,49.4,49.0,98,98,98,1.162,48.6,48.9,48.4,2.368,3.1,136,12,4.3,0.00001,0.00001,53.9,56.7,21,0,100,.,14.29,0.00,0.00
15min,AgWx,beryljct,423,06OCT2021:06:30:00,50.6,12.61,49.6,49.3,49.2,49.3,49.0,98,98,98,1.170,48.7,48.8,48.5,1.82,1.0,128,19,3.2,-0.00000,0.00000,53.9,56.7,22,0,100,.,14.29,0.00,0.00
15min,AgWx,beryljct,423,06OCT2021:06:45:00,50.5,12.61,50.3,49.7,49.3,49.7,49.1,98,98,97,1.181,48.6,49.0,48.4,0.548,2.4,34,14,3.7,0.00001,0.00001,53.8,56.7,22,0,100,.,14.29,0.00,0.00
15min,AgWx,beryljct,423,06OCT2021:07:00:00,50.6,12.61,50.5,50.0,49.8,50.1,49.6,96,97,95,1.165,48.7,49.2,48.5,0.614,0.3,222,57,2.2,0.00001,0.00001,53.8,56.7,21,0,100,.,14.29,0.00,0.00
15min,AgWx,beryljct,423,06OCT2021:07:15:00,50.8,12.61,51.8,51.1,50.1,51.1,49.8,94,95,94,1.202,48.6,49.6,48.2,3.31,0.9,99,49,3.7,0.00002,0.00003,53.8,56.6,22,0,100,.,14.29,0.00,0.00
15min,AgWx,beryljct,423,06OCT2021:07:30:00,51.1,12.61,51.4,51.9,51.8,52.2,51.2,89,94,87,1.157,48.7,49.5,48.4,0.241,2.4,208,19,4.3,0.00007,0.00012,53.7,56.6,21,1,100,.,14.29,0.00,0.00
15min,AgWx,beryljct,423,06OCT2021:07:45:00,51.3,12.62,50.3,50.3,50.5,51.8,50.2,92,94,88,1.169,48.3,48.8,47.8,3.354,2.6,40,11,4.1,0.00009,0.00014,53.7,56.6,22,7,100,.,14.29,0.00,0.00
15min,AgWx,beryljct,423,06OCT2021:08:00:00,51.3,12.62,50.5,50.3,50.2,50.4,50.1,94,95,94,1.171,48.6,48.8,48.5,3.025,2.7,66,20,3.7,0.00013,0.00017,53.7,56.6,21,16,100,.,14.29,0.00,0.00
15min,AgWx,beryljct,423,06OCT2021:08:15:00,51.3,12.67,51.2,51.1,50.7,51.1,50.3,93,95,91,1.158,48.6,48.9,48.4,2.806,2.7,109,23,3.9,0.00023,0.00028,53.7,56.5,21,32,100,.,14.29,0.00,0.00
15min,AgWx,beryljct,423,06OCT2021:08:30:00,51.4,12.7,50.6,50.7,50.9,51.2,50.7,92,93,90,1.172,48.6,48.8,48.3,3.858,1.7,207,78,4.1,0.00026,0.00030,53.6,56.5,22,38,100,.,14.30,0.00,0.00
15min,AgWx,beryljct,423,06OCT2021:08:45:00,51.5,12.72,50.6,50.4,50.5,50.7,50.2,95,95,93,1.186,49.0,49.4,48.7,3.551,3.9,310,16,5.9,0.00033,0.00039,53.6,56.5,22,54,100,.,14.30,0.00,0.00
15min,AgWx,beryljct,423,06OCT2021:09:00:00,51.8,12.85,51.3,51.1,50.8,51.1,50.4,95,95,95,1.207,49.4,49.7,49.1,2.477,2.0,314,20,4.3,0.00052,0.00057,53.6,56.4,22,89,100,.,14.29,0.00,0.00
15min,AgWx,beryljct,423,06OCT2021:09:15:00,52.7,13.18,52.6,51.9,51.6,52.1,51.1,94,95,93,1.226,49.9,50.5,49.6,2.587,2.2,349,20,2.9,0.00101,0.00110,53.6,56.4,22,197,100,.,14.29,0.00,0.00
15min,AgWx,beryljct,423,06OCT2021:09:30:00,53.5,13.14,52.5,52.3,52.1,52.3,51.9,91,93,90,1.209,49.6,50.2,49.3,1.6,2.7,345,17,3.3,0.00070,0.00078,53.7,56.4,21,114,100,.,14.29,0.00,0.00
15min,AgWx,beryljct,423,06OCT2021:09:45:00,53.9,13.4,52.9,52.7,52.5,52.8,52.0,88,91,87,1.182,49.1,49.8,48.7,2.499,2.3,353,15,3.1,0.00089,0.00099,53.7,56.4,22,150,100,.,14.29,0.00,0.00
15min,AgWx,beryljct,423,06OCT2021:10:00:00,54.5,13.67,53.3,53.2,52.9,53.3,52.7,88,89,85,1.211,49.4,49.8,48.5,1.556,1.5,335,9.1,2.5,0.00132,0.00144,53.8,56.3,22,236,100,.,14.29,0.00,0.00
15min,AgWx,beryljct,423,06OCT2021:10:15:00,55.5,14.35,54.0,55.0,53.4,55.1,52.9,85,88,81,1.220,49.1,50.0,48.3,1.096,0.8,316,13,1.9,0.00182,0.00197,53.9,56.3,22,337,100,.,14.29,0.00,0.00
15min,AgWx,beryljct,423,06OCT2021:10:30:00,58.0,14.38,56.0,56.1,55.7,56.7,54.4,79,82,76,1.212,49.4,50.4,48.4,3.551,1.6,159,13,3.7,0.00261,0.00284,53.9,56.3,22,479,0,.,14.29,0.00,0.00
15min,AgWx,beryljct,423,06OCT2021:10:45:00,60.4,14.32,58.1,58.0,57.2,58.4,56.1,76,79,73,1.206,49.9,51.4,48.7,4.297,3.2,169,19,5.0,0.00287,0.00319,54.0,56.3,22,525,0,.,14.29,0.00,0.00
15min,AgWx,beryljct,423,06OCT2021:11:00:00,61.9,14.22,59.7,59.0,58.2,59.0,57.5,74,76,71,1.237,50.0,51.2,49.1,5.064,5.0,176,17,8.5,0.00305,0.00347,54.2,56.3,22,555,0,.,14.29,0.00,0.00
15min,AgWx,beryljct,423,06OCT2021:11:15:00,63.0,14.3,59.5,60.2,59.5,60.3,58.8,70,74,67,1.188,49.8,51.1,48.8,7.936,5.7,186,15,8.3,0.00334,0.00384,54.4,56.2,22,594,0,.,14.29,0.00,0.00
15min,AgWx,beryljct,423,06OCT2021:11:30:00,64.1,14.21,61.5,60.9,60.6,61.3,59.6,65,70,60,1.130,48.7,50.5,46.7,4.231,4.5,177,16,7.8,0.00357,0.00409,54.6,56.2,22,612,0,.,14.29,0.00,0.00
15min,AgWx,beryljct,423,06OCT2021:11:45:00,65.1,14.17,61.2,62.2,61.3,62.3,60.5,62,66,59,1.207,48.4,49.9,46.8,5.13,4.7,171,32,7.8,0.00380,0.00437,54.9,56.2,22,645,0,.,14.28,0.00,0.00
15min,AgWx,beryljct,423,06OCT2021:12:00:00,66.1,14.18,62.1,62.2,62.1,62.6,61.6,61,64,58,1.134,48.5,50.1,47.1,4.889,4.8,169,25,9.6,0.00402,0.00463,55.3,56.2,22,676,0,.,14.28,0.00,0.00
15min,AgWx,beryljct,423,06OCT2021:12:15:00,66.9,14.14,63.9,63.2,62.7,63.6,62.2,58,62,55,1.118,47.8,49.6,46.5,5.305,6.6,164,18,11.0,0.00424,0.00500,55.7,56.2,22,707,0,.,14.28,0.00,0.00
15min,AgWx,beryljct,423,06OCT2021:12:30:00,67.8,13.79,63.7,64.2,63.8,64.3,63.4,56,58,53,1.098,47.7,49.2,46.1,7.607,7.9,165,17,12.5,0.00456,0.00546,56.1,56.3,22,747,0,.,14.28,0.00,0.00
15min,AgWx,beryljct,423,06OCT2021:12:45:00,68.6,13.73,64.1,64.2,64.4,65.0,63.6,55,59,53,1.095,47.9,49.7,46.4,7.826,6.9,166,17,11.5,0.00442,0.00527,56.6,56.3,22,719,0,.,14.28,0.00,0.00
15min,AgWx,beryljct,423,06OCT2021:13:00:00,69.1,13.71,64.6,64.8,64.8,65.7,64.2,54,57,51,1.097,47.8,50.2,46.2,9.36,9.0,165,16,14.2,0.00473,0.00575,57.0,56.3,22,764,0,.,14.28,0.00,0.00
15min,AgWx,beryljct,423,06OCT2021:13:15:00,69.6,13.73,66.9,65.4,65.3,66.3,64.3,54,58,51,1.190,48.0,50.6,45.9,7.41,7.3,172,21,13.1,0.00474,0.00567,57.5,56.3,22,761,0,.,14.27,0.00,0.00
15min,AgWx,beryljct,423,06OCT2021:13:30:00,69.9,13.68,65.5,65.6,65.4,66.3,64.9,54,56,51,1.150,48.2,50.0,46.4,9.45,9.4,156,12,13.9,0.00486,0.00592,58.0,56.4,22,778,0,.,14.27,0.00,0.00
15min,AgWx,beryljct,423,06OCT2021:13:45:00,70.3,13.7,65.0,65.6,65.8,66.3,65.4,52,55,50,1.074,47.8,49.4,46.4,10.3,10.8,170,11,16.6,0.00495,0.00613,58.4,56.4,22,779,0,.,14.26,0.00,0.00
15min,AgWx,beryljct,423,06OCT2021:14:00:00,70.6,13.76,66.0,66.4,66.0,66.4,65.4,52,55,50,1.167,48.1,49.6,46.3,15.59,10.3,161,12,15.8,0.00492,0.00606,58.9,56.5,22,774,0,.,14.26,0.00,0.00
15min,AgWx,beryljct,423,06OCT2021:14:15:00,71.0,13.67,67.0,66.8,66.8,67.6,66.2,51,54,48,1.097,47.9,50.4,46.4,9.47,10.8,181,15,15.1,0.00492,0.00614,59.4,56.6,22,754,0,.,14.26,0.00,0.00
15min,AgWx,beryljct,423,06OCT2021:14:30:00,71.4,13.77,67.2,67.2,67.2,67.8,66.7,49,53,46,1.089,47.5,49.9,45.4,9.8,10.3,182,15,14.5,0.00480,0.00602,59.8,56.7,22,724,0,.,14.26,0.00,0.00
15min,AgWx,beryljct,423,06OCT2021:14:45:00,71.6,13.62,67.2,67.1,66.8,67.4,66.4,48,50,46,1.058,46.3,48.0,45.2,10.68,12.0,170,12,17.8,0.00475,0.00609,60.1,56.8,22,704,0,.,14.26,0.00,0.00
15min,AgWx,beryljct,423,06OCT2021:15:00:00,71.7,13.62,68.1,67.8,67.0,67.8,66.6,48,51,46,1.158,46.8,48.5,45.0,12.45,11.9,163,13,16.9,0.00463,0.00596,60.5,56.8,22,682,0,.,14.26,0.00,0.00
15min,AgWx,beryljct,423,06OCT2021:15:15:00,71.9,13.61,67.8,67.3,67.4,67.9,67.0,47,50,45,1.077,46.3,48.4,45.1,9.71,12.0,169,12,16.9,0.00460,0.00597,60.8,56.9,22,663,0,.,14.26,0.00,0.00
15min,AgWx,beryljct,423,06OCT2021:15:30:00,72.0,13.63,67.6,67.6,67.5,67.9,67.0,47,48,45,1.040,46.3,47.5,45.0,11.79,12.1,171,12,20.1,0.00430,0.00567,61.1,57.1,22,607,0,.,14.26,0.00,0.00
15min,AgWx,beryljct,423,06OCT2021:15:45:00,72.2,13.62,67.3,67.6,67.7,68.1,67.3,45,47,43,1.012,45.9,47.0,44.5,13.02,12.6,165,11,16.8,0.00434,0.00576,61.3,57.2,22,602,0,.,14.26,0.00,0.00
15min,AgWx,beryljct,423,06OCT2021:16:00:00,72.3,13.6,68.2,67.7,68.0,68.5,67.6,45,48,43,1.063,46.2,47.9,44.4,8.88,12.4,166,13,18.0,0.00424,0.00566,61.5,57.3,22,580,0,.,14.26,0.00,0.00
15min,AgWx,beryljct,423,06OCT2021:16:15:00,72.2,13.71,67.6,67.7,67.8,68.4,67.1,44,48,42,1.030,45.2,47.7,44.0,12.76,11.9,169,13,17.8,0.00361,0.00497,61.6,57.4,22,466,0,.,14.26,0.00,0.00
15min,AgWx,beryljct,423,06OCT2021:16:30:00,71.7,13.61,66.8,67.1,67.4,68.0,66.9,45,47,43,1.022,45.3,47.0,44.0,17.93,12.2,173,14,17.9,0.00280,0.00411,61.8,57.6,22,320,0,.,14.26,0.00,0.00
15min,AgWx,beryljct,423,06OCT2021:16:45:00,70.8,13.68,66.3,66.6,66.7,67.1,66.3,46,47,45,1.004,45.1,45.7,44.6,12.91,13.5,173,11,17.1,0.00271,0.00408,61.9,57.7,22,292,0,.,14.26,0.00,0.00
15min,AgWx,beryljct,423,06OCT2021:17:00:00,69.7,13.7,66.6,66.5,66.2,66.6,66.0,46,48,45,1.020,44.8,45.6,44.1,11.62,12.2,176,10,17.9,0.00219,0.00342,61.9,57.8,22,221,0,.,14.26,0.00,0.00
15min,AgWx,beryljct,423,06OCT2021:17:15:00,69.7,13.65,66.8,66.9,67.2,67.7,66.5,45,47,43,1.034,45.1,46.3,43.8,10.26,12.3,174,12,16.2,0.00333,0.00468,61.8,57.9,22,417,0,.,14.26,0.00,0.00
15min,AgWx,beryljct,423,06OCT2021:17:30:00,70.1,13.67,67.5,67.3,67.2,67.4,66.9,44,46,42,0.966,44.6,45.8,43.6,10.61,10.3,178,13,15.1,0.00268,0.00387,61.7,58.1,22,323,0,.,14.26,0.00,0.00
15min,AgWx,beryljct,423,06OCT2021:17:45:00,70.2,13.68,67.0,66.9,67.3,67.6,66.9,44,47,42,0.996,44.6,46.6,43.5,12.08,11.0,181,10,16.6,0.00230,0.00352,61.6,58.2,22,242,0,.,14.26,0.00,0.00
15min,AgWx,beryljct,423,06OCT2021:18:00:00,69.7,13.67,66.3,66.0,66.4,66.9,66.0,45,47,44,1.004,44.6,45.3,44.0,10.83,12.0,169,11,15.5,0.00217,0.00341,61.5,58.3,22,214,0,.,14.26,0.00,0.00
15min,AgWx,beryljct,423,06OCT2021:18:15:00,69.0,13.69,65.2,65.2,65.8,66.2,65.1,46,48,45,0.980,44.5,45.3,43.9,11.95,11.1,181,12,15.2,0.00091,0.00112,61.4,58.4,22,138,0,.,14.26,0.00,0.00
15min,AgWx,beryljct,423,06OCT2021:18:30:00,67.6,13.14,63.9,63.8,64.5,65.2,63.7,48,51,45,0.989,44.3,45.1,43.6,9.54,9.0,189,7.8,14.3,0.00062,0.00080,61.3,58.5,22,46,0,.,14.26,0.00,0.00
15min,AgWx,beryljct,423,06OCT2021:18:45:00,65.9,13.07,62.3,62.6,63.3,63.9,62.6,50,52,49,1.001,44.6,45.0,44.1,6.27,6.7,184,9.1,10.0,0.00041,0.00056,61.1,58.6,22,23,0,.,14.27,0.00,0.00
15min,AgWx,beryljct,423,06OCT2021:19:00:00,64.4,13.03,62.3,62.4,62.5,62.7,62.2,52,53,51,1.006,44.8,45.1,44.3,5.086,6.3,196,7.4,9.0,0.00034,0.00048,60.9,58.7,22,16,0,.,14.27,0.00,0.00
15min,AgWx,beryljct,423,06OCT2021:19:15:00,63.4,13,60.9,61.4,62.0,62.5,61.4,53,55,52,1.016,44.8,45.2,44.5,3.88,5.5,199,7.8,8.2,0.00025,0.00037,60.7,58.7,21,4,0,.,14.27,0.00,0.00
15min,AgWx,beryljct,423,06OCT2021:19:30:00,62.4,12.98,61.4,60.8,61.1,61.6,60.7,55,56,53,1.003,44.7,45.0,44.4,4.757,3.9,214,8.0,5.6,0.00010,0.00018,60.5,58.8,22,1,0,.,14.27,0.00,0.00
15min,AgWx,beryljct,423,06OCT2021:19:45:00,61.7,12.96,60.8,60.3,60.7,61.0,60.1,56,57,55,1.004,44.7,45.0,44.5,3.003,4.1,211,6.0,6.0,0.00011,0.00019,60.2,58.9,22,0,0,.,14.27,0.00,0.00
15min,AgWx,beryljct,423,06OCT2021:20:00:00,61.2,12.96,61.3,60.5,60.5,60.7,60.3,56,57,55,1.003,44.8,45.1,44.5,4.845,3.9,206,5.3,6.0,0.00009,0.00016,60.0,58.9,22,0,0,.,14.28,0.00,0.00
15min,AgWx,beryljct,423,06OCT2021:20:15:00,60.8,12.95,60.2,59.9,60.5,60.9,59.9,56,57,55,1.004,44.6,45.0,44.4,6.204,4.7,204,9.5,6.2,0.00016,0.00025,59.8,59.0,22,0,0,.,14.28,0.00,0.00
15min,AgWx,beryljct,423,06OCT2021:20:30:00,60.6,12.95,61.1,61.0,60.4,61.0,59.9,55,57,53,0.972,44.2,44.7,43.6,8,6.9,221,7.0,10.5,0.00030,0.00041,59.6,59.0,22,0,0,.,14.28,0.00,0.00
15min,AgWx,beryljct,423,06OCT2021:20:45:00,60.6,12.94,60.7,60.6,60.9,61.2,60.6,53,54,52,0.968,43.7,44.0,43.4,7.256,7.8,224,6.6,10.0,0.00037,0.00050,59.4,59.0,21,0,0,.,14.28,0.00,0.00
15min,AgWx,beryljct,423,06OCT2021:21:00:00,60.5,12.94,59.6,59.9,60.5,61.1,59.9,54,55,52,0.973,43.7,44.1,43.4,2.981,5.3,218,9.3,8.9,0.00021,0.00032,59.2,59.1,22,0,0,.,14.28,0.00,0.00
15min,AgWx,beryljct,423,06OCT2021:21:15:00,59.8,12.92,55.7,56.5,58.2,59.9,55.1,60,70,55,1.002,44.2,45.4,43.5,1.6,2.3,146,46,5.8,-0.00007,-0.00006,59.0,59.1,22,0,0,.,14.27,0.00,0.00
15min,AgWx,beryljct,423,06OCT2021:21:30:00,58.7,12.93,58.7,58.0,56.8,58.0,55.1,63,69,59,0.980,44.5,45.1,44.0,3.683,3.5,127,12,4.7,0.00001,0.00004,58.8,59.1,22,0,0,.,14.28,0.00,0.00
15min,AgWx,beryljct,423,06OCT2021:21:45:00,57.6,12.92,55.1,55.9,55.7,58.2,53.4,67,74,59,1.002,44.7,45.5,44.0,4.034,3.7,111,12,6.2,0.00000,0.00003,58.6,59.1,22,0,0,.,14.28,0.00,0.00
15min,AgWx,beryljct,423,06OCT2021:22:00:00,56.6,12.91,56.7,56.3,55.2,57.0,52.8,68,76,62,0.982,44.6,45.3,44.0,4.932,2.9,113,6.6,5.2,-0.00006,-0.00005,58.5,59.1,22,0,0,.,14.28,0.00,0.00
15min,AgWx,beryljct,423,06OCT2021:22:15:00,56.0,12.91,56.6,54.6,55.5,56.9,54.1,66,70,62,1.001,44.2,44.6,43.8,4.735,4.7,110,5.5,5.9,0.00007,0.00012,58.3,59.1,22,0,0,.,14.29,0.00,0.00
15min,AgWx,beryljct,423,06OCT2021:22:30:00,55.2,12.91,51.7,52.8,54.3,55.4,52.8,69,72,66,0.977,44.4,44.6,44.0,2.543,3.4,110,7.8,5.1,-0.00003,-0.00001,58.1,59.1,22,0,0,.,14.28,0.00,0.00
15min,AgWx,beryljct,423,06OCT2021:22:45:00,54.2,12.9,52.8,52.1,51.8,52.7,51.4,75,77,72,0.979,44.0,44.6,43.6,1.6,1.1,131,29,3.2,-0.00022,-0.00030,57.9,59.1,22,0,0,.,14.29,0.00,0.00
15min,AgWx,beryljct,423,06OCT2021:23:00:00,53.4,12.87,52.6,52.8,52.2,53.3,50.7,74,79,70,0.973,44.0,44.5,43.1,2.872,2.1,197,4.5,3.3,-0.00014,-0.00017,57.7,59.0,21,0,0,.,14.29,0.00,0.00
15min,AgWx,beryljct,423,06OCT2021:23:15:00,52.7,12.88,53.8,52.3,51.7,52.8,50.7,74,77,71,0.992,43.9,44.7,43.2,2.916,2.8,193,9.8,3.2,-0.00009,-0.00010,57.5,59.0,22,0,0,.,14.29,0.00,0.00
15min,AgWx,beryljct,423,06OCT2021:23:30:00,52.2,12.88,52.4,52.4,52.9,54.9,51.2,71,75,66,0.974,43.7,44.5,42.9,3.551,3.7,179,15,4.7,-0.00002,-0.00000,57.3,59.0,22,0,0,.,14.29,0.00,0.00
15min,AgWx,beryljct,423,06OCT2021:23:45:00,51.9,12.87,53.5,54.0,52.8,54.1,51.2,71,75,68,0.969,43.7,44.2,42.9,3.266,3.4,186,3.5,4.0,-0.00004,-0.00003,57.1,59.0,22,0,0,.,14.29,0.00,0.00
15min,AgWx,beryljct,423,07OCT2021:00:00:00,51.7,12.87,51.0,51.7,52.9,53.8,51.7,71,74,69,0.955,43.7,44.0,43.3,3.288,3.2,181,1.5,3.7,-0.00006,-0.00005,56.9,59.0,22,0,0,.,14.29,0.00,0.00
15min,AgWx,beryljct,423,07OCT2021:00:15:00,51.4,12.86,52.3,52.6,52.6,53.1,51.5,72,75,70,0.966,43.8,44.2,43.5,3.179,3.5,184,3.1,4.2,-0.00004,-0.00003,56.7,58.9,22,0,0,.,14.29,0.00,0.00
15min,AgWx,beryljct,423,07OCT2021:00:30:00,51.2,12.86,50.9,49.9,50.9,52.6,48.9,75,80,71,0.970,43.2,44.0,42.2,3.266,3.0,192,4.1,3.6,-0.00009,-0.00009,56.5,58.8,21,0,0,.,14.29,0.00,0.00
15min,AgWx,beryljct,423,07OCT2021:00:45:00,50.8,12.86,51.2,51.2,51.7,52.7,50.0,73,79,70,0.956,43.4,43.8,42.9,0.723,2.3,194,7.2,3.5,-0.00012,-0.00014,56.3,58.8,22,0,0,.,14.29,0.00,0.00
15min,AgWx,bigpiney,439,06OCT2021:00:00:00,55.2,12.61,51.3,51.0,50.9,52.1,49.6,51,54,48,0.650,33.5,33.8,33.1,5.086,4.5,209,8.7,5.6,0.00023,0.00032,48.0,47.5,48,0,0,0.0,4.53,0.00,0.00
15min,AgWx,bigpiney,439,06OCT2021:00:15:00,54.1,12.59,50.3,50.6,50.3,51.1,49.0,53,56,50,0.644,33.6,34.1,33.1,5.239,5.1,220,3.7,6.2,0.00025,0.00034,48.0,47.5,48,0,0,0.0,4.53,0.00,0.00
15min,AgWx,bigpiney,439,06OCT2021:00:30:00,53.2,12.59,49.5,49.7,50.7,51.4,49.7,51,53,49,0.645,33.2,33.5,32.9,5.305,5.3,208,7.7,5.9,0.00027,0.00037,47.9,47.5,48,0,0,0.0,4.53,0.00,0.00
15min,AgWx,bigpiney,439,06OCT2021:00:45:00,52.4,12.59,49.0,48.9,49.4,49.9,48.9,53,55,52,0.643,33.2,33.5,33.0,5.48,4.9,209,5.1,5.5,0.00022,0.00031,47.9,47.6,48,0,0,0.0,4.53,0.00,0.00
15min,AgWx,bigpiney,439,06OCT2021:01:00:00,51.8,12.58,47.7,47.6,48.3,49.2,47.4,56,59,54,0.657,33.6,33.9,33.2,5.13,5.2,200,5.5,5.9,0.00021,0.00029,47.9,47.6,48,0,0,0.0,4.53,0.00,0.00
15min,AgWx,bigpiney,439,06OCT2021:01:15:00,51.2,12.56,49.9,49.1,48.1,49.1,47.5,57,59,55,0.654,33.8,34.0,33.6,3.968,4.6,207,7.5,5.5,0.00018,0.00025,47.9,47.6,48,0,0,0.0,4.53,0.00,0.00
15min,AgWx,bigpiney,439,06OCT2021:01:30:00,50.7,12.56,49.9,49.8,49.7,50.0,49.2,54,55,53,0.647,33.5,33.7,33.4,4.538,4.3,189,8.2,4.7,0.00020,0.00028,47.9,47.6,48,0,0,0.0,4.53,0.00,0.00
15min,AgWx,bigpiney,439,06OCT2021:01:45:00,50.4,12.55,48.3,48.4,49.2,49.9,48.4,55,57,53,0.663,33.6,34.1,33.4,3.924,4.1,159,10,4.7,0.00017,0.00025,47.8,47.6,48,0,0,0.0,4.53,0.00,0.00
15min,AgWx,bigpiney,439,06OCT2021:02:00:00,50.3,12.55,47.2,47.5,48.9,49.5,47.4,57,58,56,0.644,34.2,34.6,33.3,2.828,3.0,121,45,4.8,0.00010,0.00016,47.8,47.6,48,0,0,0.0,4.53,0.00,0.00
15min,AgWx,bigpiney,439,06OCT2021:02:15:00,50.2,12.54,47.4,46.9,47.0,47.5,46.5,59,61,57,0.665,33.4,34.2,32.9,1.162,2.4,67,37,4.2,0.00005,0.00009,47.8,47.6,48,0,0,0.0,4.53,0.00,0.00
15min,AgWx,bigpiney,439,06OCT2021:02:30:00,50.0,12.51,47.7,47.4,47.2,47.9,46.4,60,62,59,0.670,34.2,34.5,33.9,4.121,2.7,163,23,4.5,0.00006,0.00010,47.8,47.6,48,0,0,0.0,4.53,0.00,0.00
15min,AgWx,bigpiney,439,06OCT2021:02:45:00,49.8,12.51,47.1,46.6,46.8,47.4,46.3,62,64,60,0.689,34.5,35.0,34.1,4.998,4.5,203,7.8,5.1,0.00014,0.00020,47.7,47.6,48,0,0,0.0,4.53,0.00,0.00
15min,AgWx,bigpiney,439,06OCT2021:03:00:00,49.8,12.51,47.3,47.4,47.0,47.6,46.5,64,66,62,0.706,35.4,35.9,34.7,2.411,4.3,237,17,6.3,0.00013,0.00018,47.7,47.6,48,0,0,0.0,4.53,0.00,0.00
15min,AgWx,bigpiney,439,06OCT2021:03:15:00,49.9,12.5,48.1,47.7,47.7,48.0,47.3,61,64,58,0.654,35.0,35.7,33.7,1.907,2.4,292,37,3.4,0.00004,0.00008,47.7,47.6,48,0,0,0.0,4.53,0.00,0.00
15min,AgWx,bigpiney,439,06OCT2021:03:30:00,49.9,12.5,47.5,47.6,48.1,48.6,47.6,57,58,56,0.653,33.6,33.8,33.4,0,1.3,11,14,2.5,-0.00002,-0.00001,47.7,47.6,48,0,0,0.0,4.53,0.00,0.00
15min,AgWx,bigpiney,439,06OCT2021:03:45:00,49.7,12.49,49.2,48.7,47.7,48.7,46.9,57,59,55,0.639,33.2,33.8,32.9,0.022,2.3,312,20,5.9,0.00005,0.00009,47.7,47.6,48,0,0,0.0,4.53,0.00,0.00
15min,AgWx,bigpiney,439,06OCT2021:04:00:00,49.4,12.49,45.0,44.8,46.7,48.8,44.7,59,66,54,0.661,33.2,34.0,32.6,1.425,3.0,66,11,5.3,0.00008,0.00013,47.6,47.6,48,0,0,0.0,4.53,0.00,0.00
15min,AgWx,bigpiney,439,06OCT2021:04:15:00,49.2,12.48,47.2,46.6,45.7,46.6,44.8,64,68,61,0.662,34.3,35.2,33.9,1.008,1.1,331,54,3.0,-0.00006,-0.00007,47.6,47.6,48,0,0,0.0,4.53,0.00,0.00
15min,AgWx,bigpiney,439,06OCT2021:04:30:00,49.1,12.46,45.6,45.5,45.8,46.8,45.3,64,67,61,0.671,34.5,35.1,34.0,1.841,2.9,284,10,4.7,0.00006,0.00010,47.6,47.6,48,0,0,0.0,4.53,0.00,0.00
15min,AgWx,bigpiney,439,06OCT2021:04:45:00,49.0,12.46,46.9,46.7,46.0,46.7,45.5,63,65,60,0.651,34.1,34.5,33.5,1.315,2.9,277,6.7,3.8,0.00006,0.00011,47.6,47.6,48,0,0,0.0,4.53,0.00,0.00
15min,AgWx,bigpiney,439,06OCT2021:05:00:00,49.0,12.45,47.5,47.4,47.0,47.6,46.3,59,62,57,0.643,33.4,34.3,33.1,0,0.8,291,14,1.5,-0.00007,-0.00010,47.5,47.6,48,0,0,0.0,4.53,0.00,0.00
15min,AgWx,bigpiney,439,06OCT2021:05:15:00,49.1,12.44,47.1,46.9,47.4,48.2,46.6,58,62,56,0.655,33.5,34.3,33.1,0,0.6,92,3.1,2.4,-0.00010,-0.00014,47.5,47.6,48,0,0,0.0,4.53,0.00,0.00
15min,AgWx,bigpiney,439,06OCT2021:05:30:00,49.2,12.43,46.9,46.4,46.5,47.0,45.9,62,67,60,0.646,34.3,35.5,33.4,2.696,1.0,320,9.7,2.7,-0.00006,-0.00008,47.5,47.6,48,0,0,0.0,4.53,0.00,0.00
15min,AgWx,bigpiney,439,06OCT2021:05:45:00,49.2,12.42,47.7,47.4,46.9,47.4,46.4,59,60,58,0.641,33.3,33.6,33.0,0,1.1,331,27,2.7,-0.00005,-0.00006,47.5,47.6,48,0,0,0.0,4.53,0.00,0.00
15min,AgWx,bigpiney,439,06OCT2021:06:00:00,49.0,12.4,47.2,47.6,47.4,47.7,46.9,57,58,57,0.637,33.1,33.3,32.9,2.521,2.1,293,9.6,4.3,0.00004,0.00007,47.5,47.6,48,0,0,0.0,4.53,0.00,0.00
15min,AgWx,bigpiney,439,06OCT2021:06:15:00,48.8,12.4,47.4,47.3,47.1,48.1,46.4,59,61,57,0.643,33.3,33.8,33.0,0,1.4,286,22,2.6,-0.00002,-0.00001,47.4,47.6,48,0,0,0.0,4.53,0.00,0.00
15min,AgWx,bigpiney,439,06OCT2021:06:30:00,48.5,12.39,43.2,43.9,46.3,47.9,43.9,61,66,57,0.646,33.5,33.9,33.0,2.389,1.5,190,14,4.4,-0.00002,-0.00001,47.4,47.6,48,0,0,0.0,4.53,0.00,0.00
15min,AgWx,bigpiney,439,06OCT2021:06:45:00,48.0,12.38,42.8,44.6,46.1,47.2,43.7,62,68,59,0.639,33.6,34.1,32.9,3.42,3.6,173,17,5.1,0.00010,0.00015,47.4,47.5,48,0,0,0.0,4.53,0.00,0.00